Weather in Yarygino

Russia / Kursk Oblast     51°12′37″N   36°43′24″E
temp.,
°C
wind,
m/s
gust,
m/s
humid.,
%
clouds,
%
prec.,
mm/h
press.,
hPa
HPBL,
m
22 may, sun
sun2200:00+12se3799100 3.8 1000248
03:00+12ese3499100 6.3 996158
06:00+10nnw3399100 2.1 996253
09:00+10w3697100 4.5 996528
12:00+10w71093100 0.6 996857
15:00+9w6896100 0.9 996535
18:00+8nne71292100 1.1 998717
21:00+6n489597 1.1 1001169
23 may, mon
mon2300:00+8n499299 0.2 1002432
03:00+6n49914 0.2 1004275
06:00+3n38925 0.0 1006232
09:00+8nne56687 0.0 1007758
12:00+11n565222 0.0 10081836
15:00+12nnw555099 0.0 10082034
18:00+10n466352 0.0 1009964
21:00+6wnw22785 0.0 101011
24 may, tue
tue2400:00+5wsw34805 0.0 101054
03:00+3w38885 0.0 1011123
06:00+4w38835 0.0 1011179
09:00+11wnw5866100 0.0 1011679
12:00+13nw6759100 0.1 10101757
15:00+13nw6750100 0.1 10111485
18:00+14wnw476566 0.0 10111466
21:00+9w488998 0.3 1013134
25 may, wed
wed2500:00+8wnw36935 0.1 1014106
03:00+6nw22945 0.1 101531
06:00+7nw248998 0.0 1016129
09:00+12nw3578100 0.0 1016543
12:00+16nw5862100 0.0 10161240
15:00+17nw685995 0.3 10161518
18:00+17nw35705 0.5 10161120
21:00+11w228453 1.9 101719
26 may, thu
thu2600:00+11wsw3487100 0.0 101771
03:00+10wsw49905 0.0 1016160
06:00+10sw41186100 0.0 1015223
09:00+16sw6117095 0.0 1013513
12:00+18sw9135692 0.0 10121361
15:00+13sw101679100 0.4 10111087
18:00+10sw81496100 4.5 1009811
21:00+12wsw6149493 4.6 1009551